Moline, IL

3:45 PM CDT on October 20, 2017 (GMT -0500)
Quad-City International

Weather History for KMLI - February, 2015

Change the Weather History Date:

Friday, February 6, 2015

  Actual Average Record
Temperature  
Mean Temperature 23 °F 24 °F  
Max Temperature 34 °F 33 °F 62 °F (1882)
Min Temperature 11 °F 16 °F -16 °F (1982)
Degree Days  
Heating Degree Days 42 41  
Month to date heating degree days 308 248  
Since 1 July heating degree days 4159 3982  
Cooling Degree Days 0 0  
Month to date cooling degree days 0 0  
Year to date cooling degree days 0 0  
Moisture  
Dew Point 15 °F    
Average Humidity 71    
Maximum Humidity 81    
Minimum Humidity 61    
Precipitation  
Precipitation 0.00 in 0.04 in 0.65 in (1928)
Month to date precipitation 1.09 0.26  
Year to date precipitation 2.64 1.75  
Snow  
Snow 0.00 in 0.30 in - ()
Month to date snowfall 14.5 1.7  
Since 1 July snowfall 34.2 21.6  
Snow Depth 9.00 in    
Sea Level Pressure  
Sea Level Pressure 30.10 in    
Wind  
Wind Speed 4 mph (South)    
Max Wind Speed 13 mph    
Max Gust Speed 17 mph    
Visibility 10 miles    
Events      
T = Trace of Precipitation, MM = Missing Value Source: NWS Daily Summary

Daily Weather History Graph

Daily Weather History Graph

Search for Another Location

Airport or City:

Trip Planner

Search our weather history database for the weather conditions in past years. The results will help you decide how hot, cold, wet, or windy it might be!

Date:

Astronomy

Feb. 06, 2015 Rise Set
Actual Time 7:08 AM CST 5:24 PM CST
Civil Twilight 6:39 AM CST 5:53 PM CST
Nautical Twilight 6:06 AM CST 6:26 PM CST
Astronomical Twilight 5:34 AM CST 6:58 PM CST
Moon 8:16 PM CST (2/6) 8:12 AM CST (2/6)
Length of Visible Light 11h 13m
Length of Day
10h 15m
Waning Gibbous, 93% of the Moon is Illuminated
Feb 6
Waning Gibbous
Feb 11
Last Quarter
Feb 18
New
Feb 25
First Quarter
Mar 5
Full

Hourly Weather History & Observations

Time (CST) Temp. Windchill Dew Point Humidity Pressure Visibility Wind Dir Wind Speed Gust Speed Precip Events Conditions
12:52 AM 12.0 °F 5.9 °F 1.9 °F 64% 30.28 in 10.0 mi Variable 3.5 mph - N/A   Clear
1:52 AM 12.0 °F - 3.0 °F 67% 30.26 in 10.0 mi Calm Calm - N/A   Clear
2:52 AM 15.1 °F - 6.1 °F 68% 30.24 in 10.0 mi Calm Calm - N/A   Clear
3:52 AM 16.0 °F 10.4 °F 7.0 °F 68% 30.21 in 10.0 mi Variable 3.5 mph - N/A   Clear
4:52 AM 18.0 °F 12.7 °F 9.0 °F 68% 30.19 in 10.0 mi SW 3.5 mph - N/A   Clear
5:52 AM 18.0 °F 11.1 °F 9.0 °F 68% 30.19 in 10.0 mi WSW 4.6 mph - N/A   Clear
6:52 AM 17.1 °F - 9.0 °F 71% 30.21 in 10.0 mi Calm Calm - N/A   Scattered Clouds
7:52 AM 19.0 °F - 10.9 °F 71% 30.20 in 10.0 mi Calm Calm - N/A   Clear
8:52 AM 19.9 °F 12.1 °F 12.0 °F 71% 30.17 in 10.0 mi SSW 5.8 mph - N/A   Partly Cloudy
9:52 AM 24.1 °F 16.0 °F 14.0 °F 65% 30.16 in 10.0 mi SSW 6.9 mph - N/A   Clear
10:52 AM 27.0 °F 16.7 °F 16.0 °F 63% 30.13 in 10.0 mi SSW 11.5 mph - N/A   Clear
11:52 AM 30.0 °F 21.7 °F 19.0 °F 64% 30.10 in 10.0 mi South 9.2 mph - N/A   Clear
12:52 PM 30.9 °F 24.3 °F 21.0 °F 67% 30.08 in 10.0 mi SSE 6.9 mph - N/A   Clear
1:52 PM 32.0 °F 24.2 °F 21.9 °F 66% 30.05 in 10.0 mi SE 9.2 mph - N/A   Clear
2:52 PM 32.0 °F 26.4 °F 23.0 °F 69% 30.04 in 10.0 mi SSE 5.8 mph - N/A   Clear
3:52 PM 34.0 °F 26.6 °F 23.0 °F 64% 30.03 in 10.0 mi South 9.2 mph - N/A   Clear
4:52 PM 33.1 °F 26.9 °F 23.0 °F 66% 30.03 in 10.0 mi South 6.9 mph - N/A   Clear
5:52 PM 27.0 °F 21.6 °F 21.0 °F 78% 30.02 in 10.0 mi SSE 4.6 mph - N/A   Clear
6:52 PM 27.0 °F 23.0 °F 19.9 °F 75% 30.02 in 10.0 mi ESE 3.5 mph - N/A   Clear
7:52 PM 26.1 °F 21.9 °F 19.9 °F 78% 30.01 in 10.0 mi East 3.5 mph - N/A   Clear
8:52 PM 26.1 °F - 19.9 °F 78% 30.01 in 9.0 mi Calm Calm - N/A   Clear
9:52 PM 24.1 °F - 19.9 °F 84% 29.98 in 8.0 mi Calm Calm - N/A   Clear
10:52 PM 23.0 °F - 18.0 °F 81% 29.97 in 6.0 mi Calm Calm - N/A   Haze
11:52 PM 19.9 °F - 16.0 °F 85% 29.94 in 6.0 mi Calm Calm - N/A   Clear